Terminal Aerodrome Forecast
Issued by NWS Quad Cities IA IL

Home | Current Version | Previous Version | Text Only | Print | Product List | Glossary On
Versions: 1 2 3 4 5 6 7 8 9 10 11 12 13 14 15 16 17 18 19 20 21 22 23 24 25 26 27 28 29 30 31 32 33 34 35 36 37 38
489
FTUS43 KDVN 051124
TAFDBQ
TAF
KDBQ 051124Z 0512/0612 24008KT 1SM BR VV002
     FM051500 18007KT 4SM BR OVC004
     FM051800 18012KT 6SM HZ OVC015
     FM060300 17005KT 4SM BR OVC009=

USA.gov is the U.S. government's official web portal to all federal, state and local government web resources and services.